DW7380 Saint-Petersburg RU current weather conditions

sailwx.info

Wind from 174 at 1 knots gusting 7

Air temperature 3.3° C
Dewpoint 2.5° C

Last reported at 2019-Mar-18 16:05 UTC.
Time now 2019-Mar-18 16:39 UTC

Location: N 60°03' E 030°29'.
View on Google Maps.

See reports from other nearby stations

  
Tides and Currents Weather Stations Pressure Air Temp Water Temp Dewpoint Dewpoint Depression Visibility Wind Speed Wind Dir Waves Ship Positions
date/time (UTC)wind fromknots sea level pressurealtimeterstation pressurevisibilityair tempwater tempwave heightnotes
2019-Mar-18 16:05 174 1 gusting 7 3.3
2019-Mar-18 16:00 180 3.3
2019-Mar-18 15:55 164 3.3
2019-Mar-18 15:50 164 3.3
2019-Mar-18 15:45 165 0 gusting 4 3.9
2019-Mar-18 15:40 155 0 gusting 2 3.9
2019-Mar-18 15:35 155 3.9
2019-Mar-18 15:30 174 3.9
2019-Mar-18 15:25 171 1 gusting 7 3.9
2019-Mar-18 15:20 147 0 gusting 6 3.9
2019-Mar-18 15:15 183 0 gusting 7 3.9
2019-Mar-18 15:10 173 6 gusting 6 3.9
2019-Mar-18 15:05 176 2 gusting 7 3.9
2019-Mar-18 15:00 187 2 gusting 10 3.9
2019-Mar-18 14:55 179 1 gusting 8 3.9
2019-Mar-18 14:50 122 2 gusting 7 3.9
2019-Mar-18 14:45 163 3.9
2019-Mar-18 14:40 182 1 gusting 6 3.9
2019-Mar-18 14:35 171 0 gusting 4 3.9
2019-Mar-18 14:30 171 3.9
2019-Mar-18 14:25 171 0 gusting 4 3.9
2019-Mar-18 14:20 169 1 gusting 4 3.9
2019-Mar-18 14:15 184 3.9
2019-Mar-18 14:10 184 3.9
2019-Mar-18 14:05 184 0 gusting 2 3.9
2019-Mar-18 14:00 184 3.9
2019-Mar-18 13:55 184 0 gusting 3 3.9
2019-Mar-18 13:50 184 3.9
2019-Mar-18 13:45 184 1 gusting 3 3.9
2019-Mar-18 13:40 184 2 gusting 6 3.9
2019-Mar-18 13:35 154 3.9
2019-Mar-18 13:30 154 0 gusting 6 3.9
2019-Mar-18 13:25 177 0 gusting 6 3.9
2019-Mar-18 13:20 185 0 gusting 4 3.9
2019-Mar-18 13:15 177 4 gusting 4 3.9
2019-Mar-18 13:10 178 2 gusting 7 3.9
2019-Mar-18 13:05 178 3 gusting 7 3.9
2019-Mar-18 13:00 169 3 gusting 6 3.9
2019-Mar-18 12:55 164 0 gusting 3 3.9
2019-Mar-18 12:50 172 3.9
2019-Mar-18 12:45 182 1 gusting 6 3.9
2019-Mar-18 12:40 168 1 gusting 4 3.9
2019-Mar-18 12:35 172 3.9
2019-Mar-18 12:30 125 1 gusting 6 3.9
2019-Mar-18 12:25 172 1 gusting 4 3.9
2019-Mar-18 12:20 160 3.9
2019-Mar-18 12:15 166 3 gusting 8 3.9
2019-Mar-18 12:10 181 3.9
2019-Mar-18 12:05 183 0 gusting 6 3.9
2019-Mar-18 12:00 164 0 gusting 5 3.9
2019-Mar-18 11:55 174 3.9
2019-Mar-18 11:50 174 0 gusting 4 3.9
2019-Mar-18 11:45 172 1 gusting 5 3.9
2019-Mar-18 11:40 147 0 gusting 5 3.9
2019-Mar-18 11:35 170 3.9
2019-Mar-18 11:30 143 1 gusting 6 3.9
2019-Mar-18 11:25 164 0 gusting 3 3.9
2019-Mar-18 11:20 169 0 gusting 5 3.9
2019-Mar-18 11:15 179 0 gusting 1 3.9
2019-Mar-18 11:10 179 0 gusting 4 3.9
2019-Mar-18 11:05 181 1 gusting 7 3.9
2019-Mar-18 11:00 149 2 gusting 5 3.9
2019-Mar-18 10:55 174 2 gusting 6 3.9
2019-Mar-18 10:50 177 0 gusting 6 3.9
2019-Mar-18 10:45 166 4 gusting 5 3.9
2019-Mar-18 10:40 164 3.9
2019-Mar-18 10:35 156 0 gusting 4 3.9
2019-Mar-18 10:30 170 0 gusting 6 3.3
2019-Mar-18 10:25 154 0 gusting 7 3.3
2019-Mar-18 10:20 164 7 gusting 7 3.3
2019-Mar-18 10:15 160 3.3
2019-Mar-18 10:10 170 4 gusting 6 3.3
2019-Mar-18 10:05 162 4 gusting 8 3.3
2019-Mar-18 10:00 187 1 gusting 5 3.3
2019-Mar-18 09:55 166 3 gusting 5 3.3
2019-Mar-18 09:50 160 4 gusting 4 3.3
2019-Mar-18 09:45 164 1 gusting 5 3.3
2019-Mar-18 09:40 141 0 gusting 6 3.3
2019-Mar-18 09:35 177 0 gusting 6 3.3
2019-Mar-18 09:30 179 2 gusting 5 3.3
2019-Mar-18 09:25 141 3.3
2019-Mar-18 09:20 163 1 gusting 6 3.3
2019-Mar-18 09:15 177 2 gusting 10 3.3
2019-Mar-18 09:10 181 3 gusting 8 3.3
2019-Mar-18 09:05 181 5 gusting 9 3.3
2019-Mar-18 09:00 182 5 gusting 7 3.3
2019-Mar-18 08:55 178 5 gusting 6 3.3
2019-Mar-18 08:50 177 2 gusting 7 3.3
2019-Mar-18 08:45 185 1 gusting 6 3.3
2019-Mar-18 08:40 183 1 gusting 10 3.3
2019-Mar-18 08:35 168 3 gusting 8 3.3
2019-Mar-18 08:30 180 3 gusting 9 3.3
2019-Mar-18 08:25 189 4 gusting 10 3.3
2019-Mar-18 08:20 179 6 gusting 9 3.3
2019-Mar-18 08:15 165 0 gusting 13 3.3
2019-Mar-18 08:10 188 3 gusting 10 3.3
2019-Mar-18 08:05 163 3 gusting 10 3.3
2019-Mar-18 08:00 179 6 gusting 8 3.3
2019-Mar-18 07:55 189 4 gusting 7 3.3
2019-Mar-18 07:50 178 1 gusting 9 3.3
2019-Mar-18 07:45 187 0 gusting 9 3.3
2019-Mar-18 07:40 158 0 gusting 9 3.3
2019-Mar-18 07:35 172 6 gusting 10 3.3
2019-Mar-18 07:30 170 0 gusting 11 3.3
2019-Mar-18 07:25 145 10 gusting 10 3.3
2019-Mar-18 07:20 152 10 gusting 10 3.3
2019-Mar-18 07:15 189 5 gusting 8 2.8
2019-Mar-18 07:10 164 6 gusting 12 2.8
2019-Mar-18 07:05 178 0 gusting 10 2.8
2019-Mar-18 07:00 162 8 gusting 6 2.8
2019-Mar-18 06:55 178 2.8
2019-Mar-18 06:50 151 0 gusting 10 2.8
2019-Mar-18 06:45 185 5 gusting 11 2.8
2019-Mar-18 06:40 189 1 gusting 13 2.8
2019-Mar-18 06:35 145 8 gusting 13 2.8
2019-Mar-18 06:30 185 4 gusting 13 2.8
2019-Mar-18 06:25 174 1 gusting 13 2.8
2019-Mar-18 06:20 174 7 gusting 11 3.3
2019-Mar-18 06:15 164 5 gusting 17 3.3
2019-Mar-18 06:10 139 2 gusting 10 3.3
2019-Mar-18 06:05 163 1 gusting 8 3.3
2019-Mar-18 06:00 179 7 gusting 8 3.3
2019-Mar-18 05:55 165 2 gusting 9 3.3
2019-Mar-18 05:50 173 5 gusting 10 3.3
2019-Mar-18 05:45 123 1 gusting 11 3.3
2019-Mar-18 05:40 164 5 gusting 13 3.3
2019-Mar-18 05:35 162 11 gusting 14 2.8
2019-Mar-18 05:30 166 5 gusting 10 2.8
2019-Mar-18 05:25 168 3 gusting 12 2.8
2019-Mar-18 05:20 166 4 gusting 11 2.8
2019-Mar-18 05:15 131 6 gusting 14 2.8
2019-Mar-18 05:10 199 4 gusting 11 2.8
2019-Mar-18 05:05 142 6 gusting 12 2.8
2019-Mar-18 05:00 179 4 gusting 18 2.8
2019-Mar-18 04:55 192 1 gusting 11 2.8
2019-Mar-18 04:50 149 3 gusting 11 2.8
2019-Mar-18 04:45 156 6 gusting 14 2.8
2019-Mar-18 04:40 162 3 gusting 11 2.8
2019-Mar-18 04:35 175 2 gusting 14 2.8
2019-Mar-18 04:30 167 1 gusting 11 2.8
2019-Mar-18 04:25 183 0 gusting 13 2.8
2019-Mar-18 04:20 152 9 gusting 15 2.8
2019-Mar-18 04:15 136 4 gusting 13 2.8
2019-Mar-18 04:10 181 2 gusting 13 2.8
2019-Mar-18 04:05 177 1 gusting 13 2.8
2019-Mar-18 04:00 147 5 gusting 15 2.8
2019-Mar-18 03:55 166 8 gusting 16 2.8
2019-Mar-18 03:50 139 2 gusting 13 2.8
2019-Mar-18 03:45 163 4 gusting 9 2.8
2019-Mar-18 03:40 145 1 gusting 13 2.8
2019-Mar-18 03:35 167 1 gusting 13 2.8
2019-Mar-18 03:30 163 4 gusting 18 2.8
2019-Mar-18 03:25 147 9 gusting 11 2.8
2019-Mar-18 03:20 185 6 gusting 9 2.8
2019-Mar-18 03:15 143 5 gusting 13 2.8
2019-Mar-18 03:10 149 3 gusting 10 2.8
2019-Mar-18 03:05 110 8 gusting 15 2.8
2019-Mar-18 03:00 134 6 gusting 12 2.8
2019-Mar-18 02:55 131 2 gusting 9 2.8
2019-Mar-18 02:50 158 5 gusting 15 2.8
2019-Mar-18 02:45 175 4 gusting 10 2.8
2019-Mar-18 02:40 193 2 gusting 15 2.8
2019-Mar-18 02:35 166 2 gusting 14 2.8
2019-Mar-18 02:30 193 3 gusting 13 2.8
2019-Mar-18 02:25 164 9 gusting 18 2.8
2019-Mar-18 02:20 133 2 gusting 13 2.8
2019-Mar-18 02:15 171 9 gusting 13 2.8
2019-Mar-18 02:10 187 3 gusting 15 2.8
2019-Mar-18 02:05 218 1 gusting 10 2.8
2019-Mar-18 02:00 189 1 gusting 19 2.8
2019-Mar-18 01:55 127 6 gusting 19 2.8
2019-Mar-18 01:50 160 2.8
2019-Mar-18 01:45 175 6 gusting 12 2.8
2019-Mar-18 01:40 170 4 gusting 13 2.8
2019-Mar-18 01:35 127 7 gusting 13 2.8
2019-Mar-18 01:30 142 5 gusting 13 2.8
2019-Mar-18 01:25 166 7 gusting 11 2.8
2019-Mar-18 01:20 135 4 gusting 13 2.8
2019-Mar-18 01:15 182 6 gusting 12 2.8
2019-Mar-18 01:10 108 2.8
2019-Mar-18 01:05 136 4 gusting 10 2.8
2019-Mar-18 01:00 175 4 gusting 13 2.8
2019-Mar-18 00:55 147 1 gusting 9 2.8
2019-Mar-18 00:50 198 1 gusting 8 2.8
2019-Mar-18 00:45 152 6 gusting 13 2.2
2019-Mar-18 00:40 139 6 gusting 6 2.2
2019-Mar-18 00:35 141 3 gusting 12 2.2
2019-Mar-18 00:30 158 6 gusting 7 2.2
2019-Mar-18 00:25 187 0 gusting 10 2.2
2019-Mar-18 00:20 147 3 gusting 14 2.2
2019-Mar-18 00:15 167 15 gusting 15 2.2
2019-Mar-18 00:10 188 1 gusting 9 2.2
2019-Mar-18 00:05 139 2 gusting 13 2.2
2019-Mar-18 00:00 169 6 gusting 9 2.2
2019-Mar-17 23:55 166 5 gusting 13 2.8
2019-Mar-17 23:50 147 3 gusting 13 2.8
2019-Mar-17 23:45 182 2 gusting 6 2.8
2019-Mar-17 23:40 159 2.8
2019-Mar-17 23:35 156 6 gusting 13 2.8
2019-Mar-17 23:30 170 3 gusting 9 2.8
2019-Mar-17 23:25 195 3 gusting 8 2.8
2019-Mar-17 23:20 157 2.8
2019-Mar-17 23:15 121 4 gusting 13 2.8
2019-Mar-17 23:10 174 3 gusting 7 2.8
2019-Mar-17 23:05 190 1 gusting 9 2.8
2019-Mar-17 23:00 193 2 gusting 11 2.8
2019-Mar-17 22:55 162 3 gusting 11 2.8
2019-Mar-17 22:50 082 0 gusting 13 2.8
2019-Mar-17 22:45 183 2.8
2019-Mar-17 22:40 174 1 gusting 13 3.3
2019-Mar-17 22:35 159 6 gusting 13 3.3
2019-Mar-17 22:30 187 1 gusting 9 3.3
2019-Mar-17 22:25 163 3 gusting 14 3.3
2019-Mar-17 22:20 174 6 gusting 13 3.3
2019-Mar-17 22:15 128 0 gusting 6 3.3
2019-Mar-17 22:10 170 6 gusting 10 3.3
2019-Mar-17 22:05 106 1 gusting 10 3.3
2019-Mar-17 22:00 188 2 gusting 19 3.3
2019-Mar-17 21:55 174 3 gusting 8 3.3
2019-Mar-17 21:50 114 6 gusting 11 3.3
2019-Mar-17 21:45 181 0 gusting 12 3.3
2019-Mar-17 21:40 132 3.3
2019-Mar-17 21:35 171 0 gusting 10 3.3
2019-Mar-17 21:30 170 4 gusting 12 3.3
2019-Mar-17 21:25 192 0 gusting 10 3.3
2019-Mar-17 21:20 148 3 gusting 9 3.3
2019-Mar-17 21:15 136 2 gusting 9 3.3
2019-Mar-17 21:10 129 9 gusting 13 3.3
2019-Mar-17 21:05 132 4 gusting 11 3.3
2019-Mar-17 21:00 179 1 gusting 11 3.3
2019-Mar-17 20:55 141 4 gusting 11 3.3
2019-Mar-17 20:50 154 2 gusting 9 2.8
2019-Mar-17 20:45 159 6 gusting 12 2.8
2019-Mar-17 20:40 168 1 gusting 13 3.3
2019-Mar-17 20:35 164 1 gusting 11 2.8
2019-Mar-17 20:30 141 3 gusting 15 2.8
2019-Mar-17 20:25 158 5 gusting 9 2.8
2019-Mar-17 20:20 143 3 gusting 14 2.8
2019-Mar-17 20:15 168 5 gusting 13 2.8
2019-Mar-17 20:10 193 1 gusting 12 2.8
2019-Mar-17 20:05 139 2 gusting 10 2.8
2019-Mar-17 20:00 135 3 gusting 12 2.8
2019-Mar-17 19:55 153 2 gusting 7 2.8
2019-Mar-17 19:50 153 2 gusting 10 2.8
2019-Mar-17 19:45 152 7 gusting 15 2.8
2019-Mar-17 19:40 160 4 gusting 8 2.8
2019-Mar-17 19:35 170 0 gusting 9 2.8
2019-Mar-17 19:30 143 2 gusting 13 2.8
2019-Mar-17 19:25 145 11 gusting 11 2.8
2019-Mar-17 19:20 118 4 gusting 10 2.8
2019-Mar-17 19:15 149 3 gusting 13 2.8
2019-Mar-17 19:10 159 5 gusting 13 2.8
2019-Mar-17 19:05 128 9 gusting 13 2.8
2019-Mar-17 19:00 132 0 gusting 15 2.8
2019-Mar-17 18:55 142 7 gusting 13 2.8
2019-Mar-17 18:50 134 8 gusting 14 2.8
2019-Mar-17 18:45 137 2 gusting 13 2.8
2019-Mar-17 18:40 166 6 gusting 9 2.8
2019-Mar-17 18:35 148 3 gusting 14 2.8
2019-Mar-17 18:30 160 2.8
2019-Mar-17 18:25 141 3 gusting 9 2.8
2019-Mar-17 18:20 156 7 gusting 11 2.8
2019-Mar-17 18:15 174 6 gusting 12 2.8
2019-Mar-17 18:10 145 1 gusting 9 2.8
2019-Mar-17 18:05 142 4 gusting 9 2.8
2019-Mar-17 18:00 166 2 gusting 8 2.8
2019-Mar-17 17:55 120 3 gusting 10 2.8
2019-Mar-17 17:50 143 4 gusting 12 2.8
2019-Mar-17 17:45 163 3 gusting 9 2.8
2019-Mar-17 17:40 133 3 gusting 9 2.8
2019-Mar-17 17:35 131 4 gusting 13 2.8
2019-Mar-17 17:30 143 11 gusting 13 2.8
2019-Mar-17 17:25 178 4 gusting 10 2.8
2019-Mar-17 17:20 161 2.8
2019-Mar-17 17:15 150 1 gusting 12 2.8
2019-Mar-17 17:10 169 11 gusting 11 2.8
2019-Mar-17 17:05 132 2 gusting 15 2.8
2019-Mar-17 17:00 149 8 gusting 13 2.8
2019-Mar-17 16:55 122 6 gusting 13 2.8
2019-Mar-17 16:50 170 2.8
2019-Mar-17 16:45 165 5 gusting 10 2.8
2019-Mar-17 16:40 141 1 gusting 12 2.8
2019-Mar-17 16:35 102 5 gusting 13 2.8
2019-Mar-17 16:30 151 0 gusting 10 2.8
2019-Mar-17 16:25 172 6 gusting 11 2.8
2019-Mar-17 16:20 154 2.8
2019-Mar-17 16:15 125 4 gusting 13 2.8
2019-Mar-17 16:10 116 2 gusting 12 2.8
2019-Mar-17 16:05 153 5 gusting 9 2.8
2019-Mar-17 16:00 146 1 gusting 13 2.8
2019-Mar-17 15:55 162 6 gusting 10 2.8
2019-Mar-17 15:50 150 13 gusting 13 2.8
2019-Mar-17 15:45 142 5 gusting 12 2.8
2019-Mar-17 15:40 132 2 gusting 8 3.3
2019-Mar-17 15:35 134 4 gusting 9 3.3
2019-Mar-17 15:30 129 6 gusting 9 3.3
2019-Mar-17 15:25 176 6 gusting 10 3.3
2019-Mar-17 15:20 147 8 gusting 11 3.3
2019-Mar-17 15:15 180 3 gusting 7 3.3
2019-Mar-17 15:10 171 4 gusting 9 3.3
2019-Mar-17 15:05 117 2 gusting 8 3.3
2019-Mar-17 15:00 183 1 gusting 7 3.3
2019-Mar-17 14:55 187 5 gusting 10 3.3
2019-Mar-17 14:50 153 2 gusting 10 3.3
2019-Mar-17 14:45 135 6 gusting 12 3.3
2019-Mar-17 14:40 122 3 gusting 9 3.3
2019-Mar-17 14:35 164 9 gusting 9 3.3
2019-Mar-17 14:30 152 3.3
2019-Mar-17 14:25 149 7 gusting 10 3.3
2019-Mar-17 14:20 154 3 gusting 11 3.3
2019-Mar-17 14:15 216 2 gusting 6 3.3
2019-Mar-17 14:10 164 3.3
2019-Mar-17 14:05 145 0 gusting 9 3.9
2019-Mar-17 14:00 104 5 gusting 7 3.9
2019-Mar-17 13:55 162 3 gusting 7 3.9
2019-Mar-17 13:50 091 5 gusting 5 3.9
2019-Mar-17 13:45 141 2 gusting 7 3.9
2019-Mar-17 13:40 131 3.9
2019-Mar-17 13:35 114 2 gusting 11 3.9
2019-Mar-17 13:30 160 0 gusting 20 3.9
2019-Mar-17 13:25 181 3 gusting 9 3.9
2019-Mar-17 13:20 126 4 gusting 11 3.9
2019-Mar-17 13:15 150 1 gusting 11 4.4
2019-Mar-17 13:10 187 2 gusting 4 4.4
2019-Mar-17 13:05 140 2 gusting 12 4.4
2019-Mar-17 13:00 197 4 gusting 13 4.4
2019-Mar-17 12:55 110 0 gusting 13 4.4
2019-Mar-17 12:50 162 6 gusting 7 4.4
2019-Mar-17 12:45 131 1 gusting 13 4.4
2019-Mar-17 12:40 168 4.4
2019-Mar-17 12:35 156 0 gusting 10 4.4
2019-Mar-17 12:30 177 3 gusting 7 4.4
2019-Mar-17 12:25 164 3 gusting 8 4.4
2019-Mar-17 12:20 156 0 gusting 6 4.4
2019-Mar-17 12:15 119 4 gusting 8 4.4
2019-Mar-17 12:10 186 4.4
2019-Mar-17 12:05 170 0 gusting 7 4.4
2019-Mar-17 12:00 166 2 gusting 7 4.4
2019-Mar-17 11:55 185 2 gusting 9 4.4
2019-Mar-17 11:50 156 0 gusting 6 4.4
2019-Mar-17 11:45 158 1 gusting 6 4.4
2019-Mar-17 11:40 177 4.4
2019-Mar-17 11:35 177 2 gusting 7 4.4
2019-Mar-17 11:30 149 6 gusting 9 4.4
2019-Mar-17 11:25 187 0 gusting 10 4.4
2019-Mar-17 11:20 172 7 gusting 11 4.4
2019-Mar-17 11:15 149 2 gusting 11 4.4
2019-Mar-17 11:10 137 4 gusting 8 4.4
2019-Mar-17 11:05 171 4 gusting 13 4.4
2019-Mar-17 11:00 145 7 gusting 10 4.4
2019-Mar-17 10:55 174 0 gusting 8 4.4
2019-Mar-17 10:50 145 3 gusting 13 4.4
2019-Mar-17 10:45 161 4 gusting 10 4.4
2019-Mar-17 10:40 189 1 gusting 12 4.4
2019-Mar-17 10:35 144 6 gusting 8 4.4
2019-Mar-17 10:30 097 0 gusting 7 3.9
2019-Mar-17 10:25 164 4 gusting 9 3.9
2019-Mar-17 10:20 116 1 gusting 10 3.9
2019-Mar-17 10:15 125 6 gusting 9 3.9
2019-Mar-17 10:10 182 1 gusting 10 3.9
2019-Mar-17 10:05 174 6 gusting 12 3.9
2019-Mar-17 10:00 135 6 gusting 10 3.9
2019-Mar-17 09:55 144 9 gusting 9 3.9
2019-Mar-17 09:50 152 4 gusting 10 3.9
2019-Mar-17 09:45 177 2 gusting 9 3.9
2019-Mar-17 09:40 133 2 gusting 10 3.3
2019-Mar-17 09:35 133 2 gusting 9 3.3
2019-Mar-17 09:30 166 0 gusting 7 3.3
2019-Mar-17 09:25 181 2 gusting 7 3.3
2019-Mar-17 09:20 187 0 gusting 9 3.3
2019-Mar-17 09:15 182 6 gusting 10 3.9
2019-Mar-17 09:10 162 0 gusting 8 3.3
2019-Mar-17 09:05 192 1 gusting 13 3.3
2019-Mar-17 09:00 162 3.3
2019-Mar-17 08:55 141 7 gusting 13 3.3
2019-Mar-17 08:50 158 2.8
2019-Mar-17 08:45 174 5 gusting 10 2.8
2019-Mar-17 08:40 149 6 gusting 12 2.8
2019-Mar-17 08:35 177 2 gusting 10 2.8
2019-Mar-17 08:30 179 4 gusting 11 2.8
2019-Mar-17 08:25 174 1 gusting 11 2.8
2019-Mar-17 08:20 142 3 gusting 10 2.8
2019-Mar-17 08:15 156 2.8
2019-Mar-17 08:10 173 1 gusting 6 2.2
2019-Mar-17 08:05 183 2 gusting 10 2.2
2019-Mar-17 08:00 177 6 gusting 9 2.2
2019-Mar-17 07:55 127 4 gusting 6 2.2
2019-Mar-17 07:50 152 2.2
2019-Mar-17 07:45 144 2.2
2019-Mar-17 07:40 191 4 gusting 9 2.2
2019-Mar-17 07:35 140 3 gusting 11 2.2
2019-Mar-17 07:30 164 0 gusting 6 1.7
2019-Mar-17 07:25 156 0 gusting 6 1.7
2019-Mar-17 07:20 146 1.7
2019-Mar-17 07:15 157 0 gusting 7 1.7
2019-Mar-17 07:10 154 0 gusting 6 1.7
2019-Mar-17 07:05 169 3 gusting 10 1.7
2019-Mar-17 07:00 130 7 gusting 13 1.7
2019-Mar-17 06:55 150 7 gusting 10 1.7
2019-Mar-17 06:50 158 6 gusting 7 1.7
2019-Mar-17 06:45 155 2 gusting 10 1.7
2019-Mar-17 06:40 182 0 gusting 7 1.7
2019-Mar-17 06:35 156 1 gusting 6 1.7
2019-Mar-17 06:30 170 0 gusting 8 1.7
2019-Mar-17 06:25 137 2 gusting 13 1.7
2019-Mar-17 06:20 149 3 gusting 13 1.1
2019-Mar-17 06:15 170 1.1
2019-Mar-17 06:10 152 1 gusting 9 1.1
2019-Mar-17 06:05 159 4 gusting 8 1.1
2019-Mar-17 06:00 153 1 gusting 7 1.1
2019-Mar-17 05:55 138 1 gusting 7 1.1
2019-Mar-17 05:50 137 0 gusting 6 1.1
2019-Mar-17 05:45 143 1.1
2019-Mar-17 05:40 162 1.1
2019-Mar-17 05:35 160 0 gusting 6 1.1
2019-Mar-17 05:30 161 1.1
2019-Mar-17 05:25 143 1.1
2019-Mar-17 05:20 150 0 gusting 5 1.1
2019-Mar-17 05:15 139 0 gusting 7 1.1
2019-Mar-17 05:10 139 1.1
2019-Mar-17 05:05 160 1.1
2019-Mar-17 05:00 154 1.1
2019-Mar-17 04:55 185 1.1
2019-Mar-17 04:50 132 1.1
2019-Mar-17 04:45 143 0 gusting 5 1.1
2019-Mar-17 04:40 163 1.1
2019-Mar-17 04:35 149 0 gusting 4 1.1
2019-Mar-17 04:30 158 0 gusting 3 1.1
2019-Mar-17 04:25 129 1.1
2019-Mar-17 04:20 171 1.1
2019-Mar-17 04:15 191 1 gusting 5 1.1
2019-Mar-17 04:10 152 1.1
2019-Mar-17 04:05 152 1.1
2019-Mar-17 04:00 198 1.1
2019-Mar-17 03:55 165 2 gusting 6 1.1
2019-Mar-17 03:50 170 1.1
2019-Mar-17 03:45 168 3 gusting 5 1.1
2019-Mar-17 03:40 176 1 gusting 7 1.1
2019-Mar-17 03:35 137 3 gusting 7 1.1
2019-Mar-17 03:30 131 1.1
2019-Mar-17 03:25 158 1.1
2019-Mar-17 03:20 158 1.1
2019-Mar-17 03:15 158 1.1
2019-Mar-17 03:10 166 5 gusting 5 1.1
2019-Mar-17 03:05 183 1.1
2019-Mar-17 03:00 183 1.1
2019-Mar-17 02:55 183 1.1
2019-Mar-17 02:50 168 1.1
2019-Mar-17 02:45 168 1.1
2019-Mar-17 02:40 156 1 gusting 6 1.1
2019-Mar-17 02:35 162 1.1
2019-Mar-17 02:30 168 1.1
2019-Mar-17 02:25 169 1.1
2019-Mar-17 02:20 169 1.1
2019-Mar-17 02:15 172 1.1
2019-Mar-17 02:10 155 2 gusting 2 1.1
2019-Mar-17 02:05 091 1.1
2019-Mar-17 02:00 091 1.1
2019-Mar-17 01:55 092 1.1
2019-Mar-17 01:50 092 1.1
2019-Mar-17 01:45 200 1.1
2019-Mar-17 01:40 200 1.1
2019-Mar-17 01:35 200 1.1
2019-Mar-17 01:30 200 1.1
2019-Mar-17 01:25 200 1.1
2019-Mar-17 01:20 200 1.1
2019-Mar-17 01:15 200 1.1
2019-Mar-17 01:10 200 1.1
2019-Mar-17 01:05 200 1.1
2019-Mar-17 01:00 200 1.1
2019-Mar-17 00:55 200 0 gusting 3 1.1
2019-Mar-17 00:50 200 1.1
2019-Mar-17 00:45 200 0 gusting 0 1.7
2019-Mar-17 00:40 200 1.7
2019-Mar-17 00:35 200 1.7
2019-Mar-17 00:30 200 1.1
2019-Mar-17 00:25 200 1.1
2019-Mar-17 00:20 200 1.1
2019-Mar-17 00:15 200 1.1
2019-Mar-17 00:10 200 1.1
2019-Mar-17 00:05 200 1.1
2019-Mar-17 00:00 200 1.1
2019-Mar-16 23:55 200 1.1
2019-Mar-16 23:50 200 1.1
2019-Mar-16 23:45 200 1.1
2019-Mar-16 23:40 200 1.1
2019-Mar-16 23:35 152 1.1
2019-Mar-16 23:30 152 1.1
2019-Mar-16 23:25 152 1.1
2019-Mar-16 23:20 152 1.1
2019-Mar-16 23:15 152 1.1
2019-Mar-16 23:10 152 1.1
2019-Mar-16 23:05 152 1.1
2019-Mar-16 23:00 152 1.1
2019-Mar-16 22:55 152 1.1
2019-Mar-16 22:50 152 1.7
2019-Mar-16 22:45 152 1.7
2019-Mar-16 22:40 152 1.7
2019-Mar-16 22:35 143 1.7
2019-Mar-16 22:30 143 1.7
2019-Mar-16 22:25 143 1.7
2019-Mar-16 22:20 136 1.7
2019-Mar-16 22:15 185 1.7
2019-Mar-16 22:10 185 1.7
2019-Mar-16 22:05 185 1.7
2019-Mar-16 22:00 185 1.7
2019-Mar-16 21:55 185 1.7
2019-Mar-16 21:50 185 1.7
2019-Mar-16 21:45 106 1.7
2019-Mar-16 21:40 217 1.7
2019-Mar-16 21:35 168 0 gusting 1 1.7
2019-Mar-16 21:30 092 2.2
2019-Mar-16 21:25 081 2.2
2019-Mar-16 21:20 081 1.7
2019-Mar-16 21:15 118 1.7
2019-Mar-16 21:10 168 1.7
2019-Mar-16 21:05 160 1.7
2019-Mar-16 21:00 188 2.2
2019-Mar-16 20:55 188 0 gusting 1 2.2
2019-Mar-16 20:50 188 2.2
2019-Mar-16 20:45 091 2.2
2019-Mar-16 20:40 152 0 gusting 2 2.2
2019-Mar-16 20:35 088 2.2
2019-Mar-16 20:30 082 2.2
2019-Mar-16 20:25 043 2.2
2019-Mar-16 20:20 162 2.2
2019-Mar-16 20:15 185 2.2
2019-Mar-16 20:10 164 4 gusting 8 2.2
2019-Mar-16 20:05 177 2.2
2019-Mar-16 20:00 178 0 gusting 3 2.2
2019-Mar-16 19:55 179 2.2
2019-Mar-16 19:50 144 4 gusting 8 2.2
2019-Mar-16 19:45 199 2.2
2019-Mar-16 19:40 199 2.2
2019-Mar-16 19:35 199 0 gusting 4 2.2
2019-Mar-16 19:30 159 2.2
2019-Mar-16 19:25 152 2.2
2019-Mar-16 19:20 174 0 gusting 2 2.8
2019-Mar-16 19:15 174 2.8
2019-Mar-16 19:10 168 4 gusting 6 2.8
2019-Mar-16 19:05 156 1 gusting 4 2.8
2019-Mar-16 19:00 143 2.8
2019-Mar-16 18:55 145 0 gusting 1 2.8
2019-Mar-16 18:50 186 0 gusting 0 2.8
2019-Mar-16 18:45 186 2.8
2019-Mar-16 18:40 186 0 gusting 2 2.8
2019-Mar-16 18:35 186 2.8
2019-Mar-16 18:30 186 2.8
2019-Mar-16 18:25 189 2.8
2019-Mar-16 18:20 173 0 gusting 1 2.8
2019-Mar-16 18:15 173 0 gusting 3 2.8
2019-Mar-16 18:10 170 2.8
2019-Mar-16 18:05 170 2.8
2019-Mar-16 18:00 170 2.8
2019-Mar-16 17:55 170 2.8
2019-Mar-16 17:50 165 2.8
2019-Mar-16 17:45 204 2.8
2019-Mar-16 17:40 204 2.8
2019-Mar-16 17:35 200 1 gusting 5 2.8
2019-Mar-16 17:30 111 0 gusting 2 3.3
2019-Mar-16 17:25 241 3.3
2019-Mar-16 17:20 220 3.3
2019-Mar-16 17:15 202 0 gusting 1 3.3
2019-Mar-16 17:10 149 0 gusting 0 3.3
2019-Mar-16 17:05 147 3.3
2019-Mar-16 17:00 087 1 gusting 1 3.3
2019-Mar-16 16:55 162 3.3
2019-Mar-16 16:50 162 3.3
2019-Mar-16 16:45 131 3.3
2019-Mar-16 16:40 195 3.3
2019-Mar-16 16:35 169 3.3
2019-Mar-16 16:30 169 3.3
2019-Mar-16 16:25 169 0 gusting 3 3.3
2019-Mar-16 16:20 169 1 gusting 5 3.3
2019-Mar-16 16:15 146 2 gusting 6 3.3
2019-Mar-16 16:10 147 8 gusting 8 3.3
2019-Mar-16 16:05 174 3 gusting 10 3.3
2019-Mar-16 16:00 141 8 gusting 8 3.3